Tracking 28790 objects as of 19-Apr-2024
HD Live streaming from Space Station
objects crossing your sky now

STARLINK-6049

Track STARLINK-6049 now!
10-day predictions
STARLINK-6049 is classified as:


NORAD ID: 56796
Int'l Code: 2023-078AF
Perigee: 577.2 km
Apogee: 581.2 km
Inclination: 70.0 °
Period: 96.1 minutes
Semi major axis: 6950 km
RCS: Unknown
Launch date: May 31, 2023
Source: United States (US)
Launch site: AIR FORCE WESTERN TEST RANGE (AFWTR)
Your satellite tracking list
Your tracking list is empty




NASA's NSSDC Master Catalog

Two Line Element Set (TLE):
1 56796U 23078AF  24109.89837527  .00000660  00000-0  63078-4 0  9998
2 56796  69.9993 283.7660 0002929 265.1391  94.9434 14.98331806 49617
Source of the keplerian elements: AFSPC